Weather History for Jacksonville, FL

Change the Weather History Date:

Thursday, February 7, 2013

  Actual Average Record
Temperature  
Mean Temperature 66 °F 55 °F  
Max Temperature 78 °F 67 °F 80 °F (1904)
Min Temperature 54 °F 43 °F 25 °F (1988)
Degree Days  
Heating Degree Days 0 10  
Month to date heating degree days 77 75  
Since 1 July heating degree days 734 951  
Cooling Degree Days 1 1  
Month to date cooling degree days 1 2  
Year to date cooling degree days 42 13  
Growing Degree Days 16 (Base 50)    
Moisture  
Dew Point 60 °F    
Average Humidity 76    
Maximum Humidity 100    
Minimum Humidity 52    
Precipitation  
Precipitation T in 0.10 in 1.89 in (2011)
Month to date precipitation 0.02 0.75  
Year to date precipitation 1.03 4.05  
Snow  
Snow 0.00 in 0.00 in T in (1907)
Month to date snowfall 0.0 0.0  
Since 1 July snowfall 0.0 T  
Snow Depth 0.00 in    
Sea Level Pressure  
Sea Level Pressure 29.96 in    
Wind  
Wind Speed 8 mph (South)    
Max Wind Speed 20 mph    
Max Gust Speed 25 mph    
Visibility 10 miles    
Events      
T = Trace of Precipitation, MM = Missing Value Source: NWS Daily Summary

Daily Weather History Graph

Daily Weather History Graph

Search for Another Location

Airport:

Trip Planner

Search our weather history database for the weather conditions in past years. The results will help you decide how hot, cold, wet, or windy it might be!

Date:

Astronomy

Feb. 07, 2013 Rise Set
Actual Time 7:13 AM EST 6:08 PM EST
Civil Twilight 6:48 AM EST 6:33 PM EST
Nautical Twilight 6:20 AM EST 7:02 PM EST
Astronomical Twilight 5:51 AM EST 7:30 PM EST
Moon 4:45 AM EST (2/7) 3:37 PM EST (2/7)
Length of Visible Light 11h 44m
Length of Day
10h 55m
Waning Crescent, 9% of the Moon is Illuminated
Feb 7
Waning Crescent
Feb 10
New
Feb 17
First Quarter
Feb 25
Full
Mar 4
Last Quarter

Hourly Weather History & Observations

Time (EST) Temp. Dew Point Humidity Pressure Visibility Wind Dir Wind Speed Gust Speed Precip Events Conditions
12:56 AM 55.0 °F 53.1 °F 93% 30.10 in 10.0 mi Calm Calm - N/A   Mostly Cloudy
1:56 AM 55.0 °F 53.1 °F 93% 30.10 in 10.0 mi Calm Calm - N/A   Mostly Cloudy
2:56 AM 55.0 °F 53.1 °F 93% 30.09 in 10.0 mi ENE 3.5 mph - N/A   Mostly Cloudy
3:56 AM 57.9 °F 55.9 °F 93% 30.08 in 10.0 mi Calm Calm - N/A   Overcast
4:56 AM 59.0 °F 57.0 °F 93% 30.08 in 10.0 mi Calm Calm - N/A   Overcast
5:56 AM 59.0 °F 57.9 °F 96% 30.09 in 9.0 mi Calm Calm - 0.00 in   Overcast
6:56 AM 59.0 °F 57.9 °F 96% 30.08 in 6.0 mi Calm Calm - N/A   Mostly Cloudy
7:56 AM 61.0 °F 61.0 °F 100% 30.06 in 7.0 mi SE 3.5 mph - N/A   Mostly Cloudy
8:56 AM 64.9 °F 62.1 °F 90% 30.07 in 10.0 mi ESE 5.8 mph - N/A   Mostly Cloudy
9:56 AM 68.0 °F 62.1 °F 81% 30.06 in 10.0 mi SE 5.8 mph - N/A   Mostly Cloudy
10:56 AM 71.6 °F 60.8 °F 69% 30.04 in 10.0 mi SE 8.1 mph - N/A   Overcast
11:56 AM 73.9 °F 60.1 °F 62% 30.00 in 10.0 mi SSE 9.2 mph - N/A   Overcast
12:56 PM 78.1 °F 59.0 °F 52% 29.96 in 10.0 mi SSE 12.7 mph - N/A   Mostly Cloudy
1:56 PM 75.0 °F 57.9 °F 55% 29.92 in 10.0 mi South 17.3 mph 21.9 mph N/A   Overcast
2:56 PM 72.0 °F 60.1 °F 66% 29.92 in 10.0 mi South 10.4 mph - 0.00 in   Overcast
3:56 PM 72.0 °F 62.1 °F 71% 29.86 in 10.0 mi SSE 11.5 mph - 0.00 in   Overcast
4:56 PM 71.1 °F 63.0 °F 75% 29.86 in 10.0 mi South 5.8 mph - N/A   Mostly Cloudy
5:56 PM 69.1 °F 62.1 °F 78% 29.85 in 10.0 mi South 10.4 mph - N/A   Mostly Cloudy
6:56 PM 68.0 °F 62.1 °F 81% 29.84 in 10.0 mi South 13.8 mph - N/A   Mostly Cloudy
7:56 PM 68.0 °F 63.0 °F 84% 29.84 in 10.0 mi South 13.8 mph 20.7 mph N/A   Overcast
8:56 PM 68.0 °F 63.0 °F 84% 29.83 in 10.0 mi SSW 12.7 mph - N/A   Overcast
9:56 PM 68.0 °F 62.1 °F 81% 29.83 in 10.0 mi SSW 12.7 mph - N/A   Mostly Cloudy
10:20 PM 68.0 °F 62.6 °F 83% 29.84 in 10.0 mi SW 9.2 mph - N/A   Overcast
10:56 PM 66.9 °F 64.0 °F 90% 29.83 in 10.0 mi SW 12.7 mph - 0.00 in   Overcast
11:56 PM 68.0 °F 64.0 °F 87% 29.83 in 10.0 mi WSW 15.0 mph - N/A   Overcast